Weather History for Vicksburg, MS

Change the Weather History Date:

Sunday, March 31, 2013

  Actual Average Record
Temperature  
Mean Temperature 59 °F 61 °F  
Max Temperature 67 °F 72 °F 87 °F (1963)
Min Temperature 50 °F 49 °F 28 °F (1987)
Degree Days  
Heating Degree Days 6 6  
Month to date heating degree days 386 265  
Since 1 July heating degree days 2156 2241  
Cooling Degree Days 0 1  
Month to date cooling degree days 7 23  
Year to date cooling degree days 25 32  
Growing Degree Days 8 (Base 50)    
Moisture  
Dew Point 57 °F    
Average Humidity 92    
Maximum Humidity 100    
Minimum Humidity 84    
Precipitation  
Precipitation 0.59 in 0.15 in 2.86 in (1961)
Month to date precipitation 2.96 5.03  
Year to date precipitation 25.79 15.37  
Sea Level Pressure  
Sea Level Pressure 29.97 in    
Wind  
Wind Speed 6 mph (WSW)    
Max Wind Speed 22 mph    
Max Gust Speed 36 mph    
Visibility 5 miles    
Events Fog , Rain , Thunderstorm    
T = Trace of Precipitation, MM = Missing Value Source: NWS Daily Summary

Daily Weather History Graph

Daily Weather History Graph

Search for Another Location

Airport:

Trip Planner

Search our weather history database for the weather conditions in past years. The results will help you decide how hot, cold, wet, or windy it might be!

Date:

Astronomy

Mar. 31, 2013 Rise Set
Actual Time 6:53 AM CDT 7:23 PM CDT
Civil Twilight 6:28 AM CDT 7:48 PM CDT
Nautical Twilight 5:59 AM CDT 8:17 PM CDT
Astronomical Twilight 5:30 AM CDT 8:46 PM CDT
Moon No Moon Rise 9:55 AM CDT (3/31)
Length of Visible Light 13h 19m
Length of Day
12h 30m
Waning Gibbous, 77% of the Moon is Illuminated
Mar 31
Waning Gibbous
Apr 2
Last Quarter
Apr 10
New
Apr 18
First Quarter
Apr 25
Full

Hourly Weather History & Observations

Time (CDT) Temp. Dew Point Humidity Pressure Visibility Wind Dir Wind Speed Gust Speed Precip Events Conditions
12:53 AM 63.0 °F 57.0 °F 81% 30.02 in 10.0 mi SSW 8.1 mph - N/A   Clear
1:53 AM 62.1 °F 57.0 °F 84% 30.01 in 10.0 mi SSW 5.8 mph - N/A   Clear
2:53 AM 61.0 °F 57.9 °F 90% 30.00 in 10.0 mi SW 6.9 mph - N/A   Clear
3:53 AM 61.0 °F 57.9 °F 90% 29.99 in 10.0 mi SSW 4.6 mph - N/A   Clear
4:33 AM 62.6 °F 59.0 °F 88% 29.96 in 10.0 mi SSW 5.8 mph - N/A   Mostly Cloudy
4:53 AM 62.1 °F 60.1 °F 93% 29.98 in 10.0 mi SW 8.1 mph - N/A   Overcast
5:53 AM 62.1 °F 60.1 °F 93% 29.98 in 7.0 mi SW 9.2 mph 18.4 mph N/A   Overcast
6:53 AM 62.1 °F 60.1 °F 93% 29.98 in 8.0 mi SW 9.2 mph 17.3 mph N/A   Overcast
7:53 AM 62.1 °F 61.0 °F 96% 29.99 in 3.0 mi SSW 10.4 mph 16.1 mph N/A   Overcast
8:53 AM 63.0 °F 61.0 °F 93% 30.01 in 7.0 mi West 5.8 mph - N/A   Overcast
9:53 AM 63.0 °F 62.1 °F 97% 30.00 in 4.0 mi SW 4.6 mph - 0.00 in   Overcast
10:24 AM 64.4 °F 62.6 °F 94% 29.96 in 10.0 mi South 9.2 mph - N/A   Overcast
10:53 AM 66.0 °F 63.0 °F 90% 29.99 in 10.0 mi SSW 9.2 mph - N/A   Overcast
11:53 AM 66.9 °F 63.0 °F 87% 29.99 in 10.0 mi Variable 4.6 mph - N/A   Overcast
12:11 PM 66.2 °F 62.6 °F 88% 29.97 in 10.0 mi SSW 5.8 mph - N/A   Overcast
12:19 PM 66.2 °F 62.6 °F 88% 29.97 in 10.0 mi SSW 3.5 mph - N/A   Overcast
12:27 PM 66.2 °F 62.6 °F 88% 29.98 in 10.0 mi SW 4.6 mph - N/A   Overcast
12:53 PM 66.9 °F 62.1 °F 84% 30.00 in 10.0 mi SW 5.8 mph - N/A   Overcast
1:36 PM 64.4 °F 62.6 °F 94% 29.97 in 7.0 mi SSW 5.8 mph - 0.01 in Rain , Thunderstorm Light Thunderstorms and Rain
1:40 PM 64.4 °F 62.6 °F 94% 30.00 in 1.5 mi WNW 16.1 mph 23.0 mph 0.12 in Rain , Thunderstorm Light Thunderstorms and Rain
1:48 PM 60.8 °F 57.2 °F 88% 30.01 in 0.8 mi NNW 16.1 mph 35.7 mph 0.20 in Rain , Thunderstorm Heavy Thunderstorms and Rain
1:53 PM 59.0 °F 55.9 °F 90% 30.03 in 2.5 mi North 16.1 mph 35.7 mph 0.22 in Rain , Thunderstorm Heavy Thunderstorms and Rain
1:55 PM 59.0 °F 55.4 °F 88% 30.00 in 3.0 mi North 13.8 mph 27.6 mph 0.01 in Rain , Thunderstorm Heavy Thunderstorms and Rain
2:02 PM 59.0 °F 55.4 °F 88% 30.01 in 3.0 mi North 16.1 mph 24.2 mph 0.02 in Rain , Thunderstorm Thunderstorms and Rain
2:17 PM 57.2 °F 55.4 °F 94% 30.02 in 3.0 mi NW 11.5 mph 18.4 mph 0.08 in Rain Heavy Rain
2:30 PM 57.2 °F 57.2 °F 100% 30.03 in 2.5 mi NW 6.9 mph 16.1 mph 0.15 in Rain , Thunderstorm Heavy Rain
2:50 PM 57.2 °F 57.2 °F 100% 30.01 in 4.0 mi North 5.8 mph - 0.24 in Rain , Thunderstorm Thunderstorms and Rain
2:53 PM 57.9 °F 57.0 °F 97% 30.03 in 4.0 mi North 5.8 mph - 0.25 in Rain , Thunderstorm Rain
3:00 PM 57.2 °F 57.2 °F 100% 30.01 in 2.0 mi NNW 4.6 mph - 0.03 in Rain Heavy Rain
3:07 PM 57.2 °F 57.2 °F 100% 30.00 in 1.2 mi Calm Calm - 0.06 in Rain , Thunderstorm Heavy Thunderstorms and Rain
3:20 PM 57.2 °F 57.2 °F 100% 29.84 in 3.0 mi ESE 19.6 mph 26.5 mph 0.11 in Rain , Thunderstorm Rain
3:29 PM 57.2 °F 57.2 °F 100% 29.85 in 7.0 mi SE 13.8 mph 25.3 mph 0.12 in Rain Light Rain
3:53 PM 59.0 °F 57.0 °F 93% 29.89 in 10.0 mi South 5.8 mph - 0.12 in   Clear
4:44 PM 60.8 °F 57.2 °F 88% 29.91 in 10.0 mi West 3.5 mph - N/A   Mostly Cloudy
4:53 PM 60.1 °F 57.0 °F 90% 29.92 in 10.0 mi SW 3.5 mph - N/A   Overcast
5:53 PM 62.1 °F 57.0 °F 84% 29.92 in 10.0 mi NE 5.8 mph - N/A   Mostly Cloudy
6:11 PM 62.6 °F 57.2 °F 82% 29.90 in 10.0 mi NNE 4.6 mph - N/A   Partly Cloudy
6:53 PM 59.0 °F 55.9 °F 90% 29.93 in 10.0 mi NNE 4.6 mph - N/A   Clear
7:53 PM 55.9 °F 54.0 °F 93% 29.95 in 7.0 mi Calm Calm - N/A   Clear
8:38 PM 53.6 °F 53.6 °F 100% 29.93 in 2.0 mi Calm Calm - N/A   Clear
8:46 PM 53.6 °F 51.8 °F 94% 29.94 in 0.8 mi Calm Calm - N/A   Clear
9:04 PM 53.6 °F 53.6 °F 100% 29.94 in 2.0 mi Calm Calm - N/A   Clear
9:08 PM 53.6 °F 51.8 °F 94% 29.95 in 0.8 mi Calm Calm - N/A   Clear
9:45 PM 51.8 °F 50.0 °F 94% 29.96 in 0.2 mi SW 3.5 mph - N/A Fog Fog
9:53 PM 53.1 °F 52.0 °F 96% 29.99 in 1.0 mi SSW 3.5 mph - N/A   Clear
10:00 PM 53.6 °F 53.6 °F 100% 29.98 in 3.0 mi SSW 4.6 mph - N/A   Clear
10:14 PM 53.6 °F 51.8 °F 94% 29.98 in 1.5 mi SW 3.5 mph - N/A   Clear
10:24 PM 51.8 °F 51.8 °F 100% 29.98 in 0.5 mi West 3.5 mph - N/A Fog Fog
10:48 PM 51.8 °F 51.8 °F 100% 29.98 in 1.2 mi WSW 3.5 mph - N/A   Mostly Cloudy
10:49 PM 51.1 °F 51.1 °F 100% 30.00 in 1.0 mi WSW 3.5 mph - N/A   Mostly Cloudy
10:57 PM 51.8 °F 50.0 °F 94% 29.98 in 0.5 mi West 3.5 mph - N/A Fog Fog
11:07 PM 53.6 °F 51.8 °F 94% 29.98 in 0.2 mi Calm Calm - N/A Fog Fog
11:15 PM 51.8 °F 51.8 °F 100% 29.97 in 0.2 mi Calm Calm - N/A Fog Fog
11:27 PM 51.8 °F 50.0 °F 94% 29.97 in 0.2 mi Calm Calm - N/A Fog Fog
11:53 PM 51.1 °F 50.0 °F 96% 29.99 in 0.2 mi Calm Calm - N/A Fog Fog